Location: Writing-on-Stone Provincial Park
(49.0825°N, 111.6163°W)
Time: 05:32:59
(UTC-07:00)

Amateur Radio Satellites - All Passes

Search period start: 24 February 2017 05:02
Search period end: 25 February 2017 05:02
Location: Writing-on-Stone Provincial Park, 49.0825°N, 111.6163°W

Satellite Date Start Highest point End Downlink Frequencies (MHz)
Time Altitude Azimuth
STARS 24 Feb 05:18:19 05:22:10 30° 264° (W) 05:26:03 437.465
CUTE-I 24 Feb 05:28:59 05:31:55 15° 87° (E) 05:34:51 437.470
AO-85 24 Feb 05:29:52 05:34:20 80° 127° (SE) 05:38:31 145.980
KAITUO 1B 24 Feb 05:39:41 05:41:10 12° 88° (E) 05:42:39 145.475/437.950
XW-2F 24 Feb 05:41:26 05:43:41 15° 90° (E) 05:45:54 145.980 - 146.000
XW-2D 24 Feb 05:44:56 05:47:31 17° 91° (E) 05:50:05 145.860 - 145.880
XW-2B 24 Feb 05:49:49 05:52:35 19° 92° (E) 05:55:19 145.730 - 145.750
BEESAT 3 24 Feb 05:54:51 05:55:22 10° 109° (ESE) 05:55:53 437.485
XW-2C 24 Feb 05:58:08 06:01:15 23° 93° (E) 06:04:20 145.795 - 145.815
ITAMSAT 1 24 Feb 06:12:10 06:13:36 11° 311° (NW) 06:15:02 435.822/435.867
LilacSat-2 24 Feb 06:13:11 06:16:45 34° 97° (E) 06:20:15 437.200
NUDT-PHONESAT 24 Feb 06:14:53 06:18:12 28° 95° (E) 06:21:28 437.300
STRAND 1 24 Feb 06:21:36 06:26:35 53° 69° (ENE) 06:31:36 437.568
BEESAT 2 24 Feb 06:30:06 06:30:34 10° 109° (ESE) 06:31:02 435.950
AO-7 24 Feb 06:31:53 06:38:37 29° 312° (NW) 06:45:20 .
SO-50 24 Feb 06:34:32 06:38:58 50° 44° (NE) 06:43:20 436.795
DOVE 4 24 Feb 06:40:47 06:45:24 73° 102° (ESE) 06:50:18 437.250
HO-68 24 Feb 06:44:54 06:49:44 19° 87° (E) 06:54:30 435.675
CUTE-I 24 Feb 07:07:19 07:12:44 89° 112° (ESE) 07:18:08 437.470
AO-85 24 Feb 07:11:51 07:15:11 21° 327° (NNW) 07:18:22 145.980
KAITUO 1B 24 Feb 07:11:52 07:15:39 65° 286° (WNW) 07:19:22 145.475/437.950
SEEDS 24 Feb 07:12:49 07:14:57 14° 88° (E) 07:17:04 437.485
XW-2F 24 Feb 07:14:25 07:18:10 52° 288° (WNW) 07:21:51 145.980 - 146.000
XW-2D 24 Feb 07:18:17 07:21:58 45° 289° (WNW) 07:25:37 145.860 - 145.880
XW-2B 24 Feb 07:23:20 07:26:59 41° 290° (WNW) 07:30:34 145.730 - 145.750
O/OREOS (USA 219) 24 Feb 07:23:34 07:27:00 20° 47° (NE) 07:30:26 437.305
BEESAT 3 24 Feb 07:28:20 07:32:15 82° 127° (SE) 07:36:15 437.485
XW-2C 24 Feb 07:32:02 07:35:32 33° 292° (WNW) 07:38:59 145.795 - 145.815
CUTE 1.7 + AOD 2 24 Feb 07:47:12 07:51:16 43° 98° (E) 07:55:16 437.475
LilacSat-2 24 Feb 07:47:47 07:50:53 23° 295° (WNW) 07:53:57 437.200
XW-2A 24 Feb 07:48:35 07:52:04 68° 102° (ESE) 07:55:31 145.665 - 145.685
NUDT-PHONESAT 24 Feb 07:48:53 07:52:05 26° 293° (WNW) 07:55:15 437.300
CUBEBUG 2 24 Feb 07:51:55 07:55:57 26° 93° (E) 07:59:57 437.445
STRAND 1 24 Feb 08:01:53 08:06:03 25° 267° (W) 08:10:16 437.568
BEESAT 2 24 Feb 08:03:39 08:07:36 81° 130° (SE) 08:11:39 435.950
FO-29 24 Feb 08:05:04 08:09:51 19° 46° (NE) 08:14:48 435.910
UNISAT 6 24 Feb 08:05:19 08:07:48 15° 56° (ENE) 08:10:18 437.425
TIGRISAT 24 Feb 08:06:13 08:08:32 14° 56° (NE) 08:10:53 435.000
AO-73 24 Feb 08:10:15 08:12:48 15° 87° (E) 08:15:18 145.935
SO-50 24 Feb 08:15:25 08:19:12 27° 244° (WSW) 08:22:56 436.795
PRISM 24 Feb 08:17:02 08:20:43 34° 67° (ENE) 08:24:25 437.425
Oscar 11 24 Feb 08:18:41 08:21:05 14° 88° (E) 08:23:28 .
DOVE 4 24 Feb 08:19:39 08:22:40 17° 300° (WNW) 08:25:45 437.250
ISS 24 Feb 08:24:31 08:26:32 15° 138° (SE) 08:28:33 437.550
AO-7 24 Feb 08:27:37 08:28:38 10° 338° (NNW) 08:29:40 .
HO-68 24 Feb 08:31:16 08:38:29 86° 106° (ESE) 08:45:39 435.675
UWE-3 24 Feb 08:31:52 08:36:18 40° 97° (E) 08:40:38 435.000/436.395/437.385
AAUSAT CUBESAT 2 24 Feb 08:40:00 08:44:04 53° 100° (E) 08:48:04 437.432
SEEDS 24 Feb 08:46:57 08:51:07 68° 286° (WNW) 08:55:15 437.485
CUTE-I 24 Feb 08:48:36 08:52:05 18° 305° (NW) 08:55:33 437.470
Tancredo 1 24 Feb 08:52:21 08:55:05 25° 143° (SE) 08:57:49 437.200
ZACube-1 24 Feb 08:55:50 09:00:13 41° 97° (E) 09:04:30 437.345
O/OREOS (USA 219) 24 Feb 09:02:20 09:06:53 68° 247° (WSW) 09:11:26 437.305
BEESAT 3 24 Feb 09:07:25 09:10:22 20° 328° (NNW) 09:13:21 437.485
XW-2A 24 Feb 09:23:12 09:24:21 11° 300° (WNW) 09:25:29 145.665 - 145.685
CUTE 1.7 + AOD 2 24 Feb 09:23:34 09:26:51 22° 297° (WNW) 09:30:09 437.475
CUBEBUG 2 24 Feb 09:28:12 09:32:43 43° 291° (WNW) 09:37:12 437.445
YUBILEINY 24 Feb 09:35:21 09:42:29 29° 80° (E) 09:49:36 435.215
POLYITAN 1 24 Feb 09:38:10 09:39:45 12° 56° (NE) 09:41:20 437.675
NANOSAT C BR1 24 Feb 09:39:12 09:40:26 11° 55° (NE) 09:41:39 145.865
UNISAT 6 24 Feb 09:39:18 09:43:50 88° 259° (W) 09:48:29 437.425
TIGRISAT 24 Feb 09:39:59 09:44:30 88° 80° (E) 09:49:09 435.000
QB50P2 24 Feb 09:40:34 09:42:36 13° 57° (ENE) 09:44:38 145.880/145.840
BEESAT 2 24 Feb 09:42:52 09:45:53 20° 328° (NNW) 09:48:57 435.950
AO-73 24 Feb 09:44:59 09:49:35 74° 286° (WNW) 09:54:03 145.935
FO-29 24 Feb 09:46:15 09:53:23 64° 68° (ENE) 10:01:06 435.910
PRISM 24 Feb 09:52:39 09:56:05 25° 265° (W) 09:59:30 437.425
Oscar 11 24 Feb 09:53:23 09:57:42 68° 287° (WNW) 10:01:59 .
ISS 24 Feb 09:59:15 10:02:32 70° 156° (SSE) 10:05:50 437.550
UWE-3 24 Feb 10:08:34 10:12:36 29° 295° (WNW) 10:16:34 435.000/436.395/437.385
AIST 2D 24 Feb 10:12:12 10:15:17 28° 68° (ENE) 10:18:25 435.315
AAUSAT CUBESAT 2 24 Feb 10:16:21 10:19:10 18° 298° (WNW) 10:21:59 437.432
HO-68 24 Feb 10:19:53 10:25:27 25° 308° (NW) 10:31:00 435.675
DELFI C3 24 Feb 10:23:31 10:27:28 90° 103° (ESE) 10:31:23 145.870
Tancredo 1 24 Feb 10:27:51 10:31:07 82° 342° (NNW) 10:34:23 437.200
ZACube-1 24 Feb 10:32:28 10:36:18 27° 296° (WNW) 10:40:04 437.345
AO-85 24 Feb 10:38:13 10:39:25 11° 17° (NNE) 10:40:35 145.980
DUCHIFAT 1 24 Feb 10:44:23 10:48:17 39° 68° (ENE) 10:52:15 145.980
EO-79 24 Feb 10:53:33 10:57:41 56° 71° (ENE) 11:01:52 145.935-145.965
POLYITAN 1 24 Feb 11:10:35 11:14:50 84° 73° (ENE) 11:19:08 437.675
NANOSAT C BR1 24 Feb 11:11:11 11:15:24 79° 75° (ENE) 11:19:40 145.865
QB50P2 24 Feb 11:13:31 11:17:46 86° 256° (WSW) 11:22:04 145.880/145.840
UNISAT 6 24 Feb 11:19:47 11:21:17 11° 275° (W) 11:22:46 437.425
TIGRISAT 24 Feb 11:20:07 11:21:53 12° 274° (W) 11:23:41 435.000
AO-73 24 Feb 11:23:24 11:24:59 12° 305° (NW) 11:26:33 145.935
LO-87 24 Feb 11:27:33 11:31:07 65° 102° (ESE) 11:34:42 145.935 - 145.965
YUBILEINY 24 Feb 11:29:39 11:38:28 75° 282° (WNW) 11:47:19 435.215
FO-29 24 Feb 11:32:27 11:38:52 34° 270° (W) 11:45:46 435.910
Oscar 11 24 Feb 11:32:51 11:33:00 10° 306° (NW) 11:33:09 .
ISS 24 Feb 11:35:52 11:39:07 53° 356° (N) 11:42:21 437.550
ESTCUBE 1 24 Feb 11:41:13 11:45:33 45° 99° (E) 11:49:50 437.505/2401.250
AIST 2D 24 Feb 11:45:38 11:48:32 23° 266° (W) 11:51:28 435.315
BUGSAT 1 24 Feb 11:45:53 11:49:54 61° 72° (ENE) 11:53:59 437.445
DELFI C3 24 Feb 12:00:31 12:01:38 11° 303° (WNW) 12:02:45 145.870
50 SAT 24 Feb 12:01:51 12:03:58 15° 92° (E) 12:06:05 437.505
AO-7 24 Feb 12:02:12 12:06:39 16° 34° (NNE) 12:11:05 .
Oscar 19 24 Feb 12:02:48 12:07:24 34° 64° (ENE) 12:12:01 437.125/150
Tancredo 1 24 Feb 12:04:25 12:07:37 51° 2° (N) 12:10:48 437.200
DX 1 24 Feb 12:07:56 12:10:17 14° 89° (E) 12:12:37 434.975-435.025
VELOX 1 24 Feb 12:11:33 12:15:31 32° 96° (E) 12:19:29 145.980
AO-85 24 Feb 12:17:24 12:21:00 33° 40° (NE) 12:24:36 145.980
DUCHIFAT 1 24 Feb 12:20:40 12:24:06 24° 267° (W) 12:27:33 145.980
UKube-1 24 Feb 12:22:13 12:24:36 14° 89° (E) 12:26:57 .
SPROUT 24 Feb 12:27:42 12:31:46 39° 98° (E) 12:35:48 437.525
BEESAT 3 24 Feb 12:28:05 12:28:58 11° 16° (NNE) 12:29:53 437.485
EO-79 24 Feb 12:31:03 12:33:48 17° 270° (W) 12:36:36 145.935-145.965
ITAMSAT 1 24 Feb 12:38:29 12:39:32 11° 48° (NE) 12:40:35 435.822/435.867
Gurwin Techsat 1B 24 Feb 12:38:46 12:43:42 41° 66° (ENE) 12:48:40 435.225
POLYITAN 1 24 Feb 12:49:48 12:51:14 11° 273° (W) 12:52:41 437.675
NANOSAT C BR1 24 Feb 12:50:00 12:51:41 12° 273° (W) 12:53:24 145.865
LO-87 24 Feb 13:02:33 13:04:07 12° 300° (WNW) 13:05:40 145.935 - 145.965
BEESAT 2 24 Feb 13:03:49 13:04:51 11° 16° (NNE) 13:05:53 435.950
ISS 24 Feb 13:12:30 13:15:48 72° 15° (NNE) 13:19:05 437.550
ESTCUBE 1 24 Feb 13:18:31 13:22:08 24° 297° (WNW) 13:25:42 437.505/2401.250
BUGSAT 1 24 Feb 13:23:23 13:25:41 15° 271° (W) 13:28:01 437.445
YUBILEINY 24 Feb 13:30:50 13:37:02 21° 307° (NW) 13:43:15 435.215
50 SAT 24 Feb 13:34:02 13:37:19 41° 290° (WNW) 13:40:35 437.505
Tancredo 1 24 Feb 13:40:48 13:44:03 83° 206° (SSW) 13:47:17 437.200
Oscar 19 24 Feb 13:41:53 13:46:40 38° 263° (W) 13:51:29 437.125/150
DX 1 24 Feb 13:42:36 13:46:57 71° 288° (WNW) 13:51:17 434.975-435.025
VELOX 1 24 Feb 13:48:02 13:51:57 32° 295° (WNW) 13:55:51 145.980
AO-7 24 Feb 13:49:36 13:57:26 47° 58° (ENE) 14:05:17 .
UKube-1 24 Feb 13:56:47 14:01:06 69° 288° (WNW) 14:05:23 .
AO-85 24 Feb 13:57:50 14:01:23 33° 240° (WSW) 14:04:55 145.980
SPROUT 24 Feb 14:03:58 14:07:32 26° 296° (WNW) 14:11:05 437.525
BEESAT 3 24 Feb 14:04:17 14:07:51 29° 39° (NE) 14:11:24 437.485
ITAMSAT 1 24 Feb 14:12:50 14:17:53 54° 68° (ENE) 14:22:59 435.822/435.867
Gurwin Techsat 1B 24 Feb 14:18:56 14:23:43 34° 264° (W) 14:28:33 435.225
BEESAT 2 24 Feb 14:40:17 14:43:53 30° 38° (NE) 14:47:29 435.950
ISS 24 Feb 14:49:08 14:52:07 31° 214° (SW) 14:55:03 437.550
ITUPSAT 1 24 Feb 15:12:20 15:17:04 54° 101° (E) 15:21:45 437.325
Tancredo 1 24 Feb 15:17:37 15:19:59 19° 220° (SW) 15:22:19 437.200
BEESAT 24 Feb 15:19:33 15:24:20 65° 102° (ESE) 15:29:05 436.000
DX 1 24 Feb 15:21:26 15:22:21 11° 306° (NW) 15:23:16 434.975-435.025
UKube-1 24 Feb 15:35:44 15:36:19 10° 306° (NW) 15:36:54 .
BEESAT 3 24 Feb 15:41:46 15:45:36 43° 238° (WSW) 15:49:24 437.485
AO-7 24 Feb 15:42:05 15:50:10 51° 259° (WSW) 15:58:18 .
MOZHAYETS 4 24 Feb 15:48:44 15:53:15 50° 99° (E) 15:57:42
ITAMSAT 1 24 Feb 15:53:26 15:57:40 25° 267° (W) 16:01:56 435.822/435.867
PCSat 24 Feb 16:09:09 16:13:43 28° 110° (ESE) 16:18:18 145.827
DOVE 4 24 Feb 16:15:24 16:17:37 14° 58° (ENE) 16:19:52 437.250
BEESAT 2 24 Feb 16:17:57 16:21:49 44° 238° (WSW) 16:25:40 435.950
KAITUO 1B 24 Feb 16:24:16 16:25:42 12° 59° (ENE) 16:27:09 145.475/437.950
KKS-1 24 Feb 16:26:24 16:30:26 32° 96° (E) 16:34:27 437.445
XW-2F 24 Feb 16:26:43 16:28:52 15° 61° (ENE) 16:31:02 145.980 - 146.000
XW-2D 24 Feb 16:30:25 16:32:55 17° 62° (ENE) 16:35:24 145.860 - 145.880
XW-2B 24 Feb 16:35:16 16:37:54 18° 63° (ENE) 16:40:33 145.730 - 145.750
RS-15 24 Feb 16:38:25 16:48:15 31° 103° (ESE) 16:58:17 29.354- 29.394
XW-2C 24 Feb 16:43:28 16:46:26 22° 64° (ENE) 16:49:26 145.795 - 145.815
CUBESAT XI-V 24 Feb 16:45:48 16:50:00 33° 96° (E) 16:54:09 437.345
ITUPSAT 1 24 Feb 16:50:48 16:54:34 23° 299° (WNW) 16:58:17 437.325
CUTE-I 24 Feb 16:54:03 16:58:52 36° 64° (ENE) 17:03:44 437.470
BEESAT 24 Feb 16:58:13 17:01:40 20° 301° (WNW) 17:05:06 436.000
NUDT-PHONESAT 24 Feb 16:58:19 17:01:25 25° 66° (ENE) 17:04:32 437.300
LilacSat-2 24 Feb 16:58:48 17:02:15 31° 68° (ENE) 17:05:43 437.200
NO-84 24 Feb 17:00:10 17:01:48 13° 127° (SE) 17:03:29 435.350 FM
STARS 24 Feb 17:02:52 17:06:56 35° 97° (E) 17:11:01 437.465
HO-68 24 Feb 17:18:18 17:23:51 25° 51° (NE) 17:29:24 435.675
MOZHAYETS 4 24 Feb 17:26:29 17:30:07 23° 298° (WNW) 17:33:42
M-CUBED/EXP-1 PRIME 24 Feb 17:47:13 17:50:44 40° 105° (ESE) 17:54:29 437.505
DOVE 4 24 Feb 17:50:40 17:54:48 72° 258° (WSW) 17:59:00 437.250
PCSat 24 Feb 17:51:28 17:56:48 57° 311° (NW) 18:02:11 145.827
KAITUO 1B 24 Feb 17:55:20 17:59:10 79° 257° (WSW) 18:03:00 145.475/437.950
XW-2F 24 Feb 17:58:46 18:02:34 62° 258° (WSW) 18:06:25 145.980 - 146.000
XW-2D 24 Feb 18:02:58 18:06:44 52° 260° (W) 18:10:33 145.860 - 145.880
KKS-1 24 Feb 18:02:59 18:06:58 32° 295° (WNW) 18:10:56 437.445
XW-2B 24 Feb 18:08:03 18:11:47 47° 261° (W) 18:15:33 145.730 - 145.750
SEEDS 24 Feb 18:08:12 18:11:00 17° 61° (ENE) 18:13:48 437.485
XW-2C 24 Feb 18:16:50 18:20:27 38° 263° (W) 18:24:05 145.795 - 145.815
CUBESAT XI-V 24 Feb 18:23:15 18:27:21 32° 294° (WNW) 18:31:25 437.345
XW-2A 24 Feb 18:23:45 18:26:59 42° 71° (ENE) 18:30:15 145.665 - 145.685
STRAND 1 24 Feb 18:29:40 18:31:59 13° 86° (E) 18:34:18 437.568
NUDT-PHONESAT 24 Feb 18:31:52 18:35:14 31° 264° (W) 18:38:39 437.300
LilacSat-2 24 Feb 18:33:19 18:36:34 25° 266° (W) 18:39:51 437.200
CUTE-I 24 Feb 18:33:55 18:38:52 39° 263° (W) 18:43:54 437.470
NO-84 24 Feb 18:35:26 18:38:48 79° 148° (SSE) 18:42:32 435.350 FM
STARS 24 Feb 18:39:22 18:43:13 29° 295° (WNW) 18:47:03 437.465
CUTE 1.7 + AOD 2 24 Feb 18:43:20 18:47:29 51° 71° (ENE) 18:51:39 437.475
RS-15 24 Feb 18:47:10 18:59:16 90° 308° (NW) 19:11:46 29.354- 29.394
CUBEBUG 2 24 Feb 18:53:42 18:57:42 33° 66° (ENE) 19:01:52 437.445
HO-68 24 Feb 19:03:35 19:10:48 87° 254° (WSW) 19:18:02 435.675
AO-73 24 Feb 19:09:17 19:12:30 20° 61° (ENE) 19:15:46 145.935
Oscar 11 24 Feb 19:17:05 19:20:13 20° 62° (ENE) 19:23:23 .
M-CUBED/EXP-1 PRIME 24 Feb 19:22:13 19:25:04 22° 301° (WNW) 19:28:03 437.505
UWE-3 24 Feb 19:32:20 19:36:39 50° 70° (ENE) 19:41:08 435.000/436.395/437.385
AAUSAT CUBESAT 2 24 Feb 19:33:37 19:37:42 59° 73° (ENE) 19:41:48 437.432
PCSat 24 Feb 19:37:41 19:41:24 18° 334° (NNW) 19:45:07 145.827
YUBILEINY 24 Feb 19:38:59 19:44:50 19° 51° (NE) 19:50:38 435.215
DELFI C3 24 Feb 19:41:12 19:42:18 11° 57° (ENE) 19:43:23 145.870
SEEDS 24 Feb 19:42:05 19:46:16 60° 259° (W) 19:50:28 437.485
ZACube-1 24 Feb 19:55:02 19:59:23 52° 71° (ENE) 20:03:50 437.345
XW-2A 24 Feb 19:58:01 20:00:00 15° 269° (W) 20:01:59 145.665 - 145.685
STRAND 1 24 Feb 20:06:46 20:11:58 85° 105° (ESE) 20:17:07 437.568
NO-84 24 Feb 20:13:24 20:16:46 37° 349° (N) 20:20:27 435.350 FM
CUTE 1.7 + AOD 2 24 Feb 20:20:35 20:23:37 19° 269° (W) 20:26:40 437.475
CUBEBUG 2 24 Feb 20:30:20 20:34:20 32° 266° (W) 20:38:27 437.445
AO-73 24 Feb 20:43:54 20:48:19 59° 260° (W) 20:52:51 145.935
Oscar 11 24 Feb 20:51:44 20:56:00 54° 260° (W) 21:00:19 .
HO-68 24 Feb 20:54:37 20:59:31 19° 273° (W) 21:04:27 435.675
RS-15 24 Feb 21:01:50 21:13:27 46° 337° (NNW) 21:25:15 29.354- 29.394
UWE-3 24 Feb 21:10:00 21:13:24 21° 269° (W) 21:16:54 435.000/436.395/437.385
AAUSAT CUBESAT 2 24 Feb 21:11:03 21:13:33 15° 271° (W) 21:16:03 437.432
ESTCUBE 1 24 Feb 21:11:53 21:12:50 11° 53° (NE) 21:13:45 437.505/2401.250
DELFI C3 24 Feb 21:12:29 21:16:27 88° 76° (ENE) 21:20:25 145.870
PCSat 24 Feb 21:25:20 21:27:07 11° 0° (N) 21:28:54 145.827
UNISAT 6 24 Feb 21:27:56 21:30:54 16° 88° (E) 21:33:49 437.425
TIGRISAT 24 Feb 21:28:35 21:31:22 15° 88° (E) 21:34:08 435.000
PRISM 24 Feb 21:29:12 21:32:49 30° 96° (E) 21:36:26 437.425
ZACube-1 24 Feb 21:32:38 21:35:58 20° 270° (W) 21:39:22 437.345
YUBILEINY 24 Feb 21:34:48 21:43:34 70° 77° (ENE) 21:52:14 435.215
STRAND 1 24 Feb 21:47:09 21:50:30 18° 304° (NW) 21:53:51 437.568
NO-84 24 Feb 21:51:32 21:55:07 37° 11° (N) 21:58:58 435.350 FM
LO-87 24 Feb 22:07:26 22:10:50 47° 72° (ENE) 22:14:17 145.935 - 145.965
SO-50 24 Feb 22:32:35 22:36:51 36° 119° (ESE) 22:41:04 436.795
FO-29 24 Feb 22:36:50 22:44:08 42° 94° (E) 22:50:49 435.910
50 SAT 24 Feb 22:40:29 22:42:13 13° 61° (ENE) 22:43:56 437.505
ESTCUBE 1 24 Feb 22:44:18 22:48:47 67° 73° (ENE) 22:53:16 437.505/2401.250
POLYITAN 1 24 Feb 22:53:53 22:54:50 11° 86° (E) 22:55:45 437.675
QB50P2 24 Feb 22:56:07 22:57:52 12° 87° (E) 22:59:35 145.880/145.840
UNISAT 6 24 Feb 23:03:23 23:08:06 70° 287° (WNW) 23:12:45 437.425
TIGRISAT 24 Feb 23:03:51 23:08:35 74° 287° (WNW) 23:13:15 435.000
PRISM 24 Feb 23:04:32 23:08:04 29° 294° (WNW) 23:11:36 437.425
AIST 2D 24 Feb 23:06:38 23:09:21 20° 93° (E) 23:12:02 435.315
DX 1 24 Feb 23:06:55 23:10:13 22° 62° (ENE) 23:13:32 434.975-435.025
PCSat 24 Feb 23:09:05 23:12:50 18° 27° (NNE) 23:16:34 145.827
VELOX 1 24 Feb 23:12:25 23:16:36 47° 69° (ENE) 23:20:49 145.980
RS-15 24 Feb 23:18:17 23:29:43 40° 11° (N) 23:41:02 29.354- 29.394
O/OREOS (USA 219) 24 Feb 23:18:25 23:22:50 64° 112° (ESE) 23:27:19 437.305
UKube-1 24 Feb 23:20:10 23:23:26 22° 62° (ENE) 23:26:43 .
SPROUT 24 Feb 23:24:41 23:28:47 49° 70° (ENE) 23:32:56 437.525
NO-84 24 Feb 23:29:09 23:33:10 88° 29° (NNE) 23:37:29 435.350 FM
YUBILEINY 24 Feb 23:32:25 23:39:40 31° 279° (W) 23:46:54 435.215
LO-87 24 Feb 23:42:39 23:44:35 14° 270° (W) 23:46:32 145.935 - 145.965
DUCHIFAT 1 24 Feb 23:59:32 00:03:35 40° 98° (E) 00:07:35 145.980
EO-79 25 Feb 00:09:35 00:13:51 60° 101° (E) 00:18:05 145.935-145.965
50 SAT 25 Feb 00:11:29 00:14:56 56° 259° (W) 00:18:23 437.505
SO-50 25 Feb 00:12:52 00:17:17 41° 319° (NW) 00:21:40 436.795
FO-29 25 Feb 00:21:49 00:29:16 51° 296° (WNW) 00:36:09 435.910
ESTCUBE 1 25 Feb 00:23:19 00:26:03 16° 271° (W) 00:28:48 437.505/2401.250
NANOSAT C BR1 25 Feb 00:26:55 00:31:13 83° 104° (ESE) 00:35:29 145.865
POLYITAN 1 25 Feb 00:26:56 00:31:17 89° 115° (ESE) 00:35:34 437.675
QB50P2 25 Feb 00:29:54 00:34:13 80° 286° (WNW) 00:38:30 145.880/145.840
AIST 2D 25 Feb 00:39:26 00:42:41 33° 291° (WNW) 00:45:53 435.315
DX 1 25 Feb 00:41:56 00:46:07 48° 260° (W) 00:50:20 434.975-435.025
UNISAT 6 25 Feb 00:42:18 00:43:57 12° 306° (NW) 00:45:35 437.425
TIGRISAT 25 Feb 00:42:33 00:44:27 12° 306° (NW) 00:46:20 435.000
ITUPSAT 1 25 Feb 00:47:27 00:50:25 16° 56° (NE) 00:53:22 437.325
VELOX 1 25 Feb 00:49:57 00:53:18 21° 268° (W) 00:56:40 145.980
PCSat 25 Feb 00:52:00 00:57:24 58° 50° (NE) 01:02:45 145.827
Gurwin Techsat 1B 25 Feb 00:53:12 00:54:31 11° 84° (E) 00:55:49 435.225
BEESAT 25 Feb 00:53:59 00:57:15 19° 58° (ENE) 01:00:32 436.000
UKube-1 25 Feb 00:55:02 00:59:11 48° 260° (W) 01:03:23 .
BUGSAT 1 25 Feb 00:58:33 01:02:46 60° 102° (ESE) 01:06:58 437.445
O/OREOS (USA 219) 25 Feb 00:59:16 01:02:41 21° 313° (NW) 01:06:07 437.305
SPROUT 25 Feb 01:01:53 01:04:59 19° 269° (W) 01:08:07 437.525
NO-84 25 Feb 01:07:19 01:10:34 22° 227° (SW) 01:13:55 435.350 FM
MOZHAYETS 4 25 Feb 01:20:32 01:22:24 12° 55° (NE) 01:24:16
RS-15 25 Feb 01:32:30 01:44:55 68° 42° (NE) 01:56:53 29.354- 29.394
DUCHIFAT 1 25 Feb 01:35:35 01:39:04 25° 296° (WNW) 01:42:32 145.980
EO-79 25 Feb 01:46:18 01:49:12 18° 300° (WNW) 01:52:07 145.935-145.965
Oscar 19 25 Feb 01:48:40 01:53:43 54° 101° (E) 01:58:43 437.125/150
SO-50 25 Feb 01:56:17 01:58:56 15° 342° (NNW) 02:01:34 436.795
NANOSAT C BR1 25 Feb 02:04:10 02:06:20 14° 302° (WNW) 02:08:30 145.865
POLYITAN 1 25 Feb 02:04:25 02:06:25 13° 303° (WNW) 02:08:24 437.675
QB50P2 25 Feb 02:07:49 02:09:17 12° 304° (NW) 02:10:46 145.880/145.840
FO-29 25 Feb 02:08:30 02:12:30 15° 318° (NW) 02:16:23 435.910
ITUPSAT 1 25 Feb 02:22:48 02:27:38 83° 256° (WSW) 02:32:29 437.325
ITAMSAT 1 25 Feb 02:23:07 02:25:40 13° 87° (E) 02:28:10 435.822/435.867
BEESAT 25 Feb 02:29:45 02:34:31 71° 257° (WSW) 02:39:20 436.000
Gurwin Techsat 1B 25 Feb 02:30:05 02:35:26 71° 103° (ESE) 02:40:44 435.225
BUGSAT 1 25 Feb 02:34:53 02:37:43 18° 299° (WNW) 02:40:32 437.445
PCSat 25 Feb 02:35:56 02:40:28 28° 250° (WSW) 02:44:59 145.827
MOZHAYETS 4 25 Feb 02:54:08 02:58:46 76° 75° (ENE) 03:03:26
M-CUBED/EXP-1 PRIME 25 Feb 03:06:14 03:06:50 10° 53° (NE) 03:07:27 437.505
KKS-1 25 Feb 03:28:03 03:32:18 49° 69° (ENE) 03:36:36 437.445
Oscar 19 25 Feb 03:28:35 03:32:44 25° 300° (WNW) 03:36:52 437.125/150
AO-7 25 Feb 03:38:38 03:46:32 45° 99° (E) 03:54:21 .
SO-50 25 Feb 03:39:35 03:41:19 12° 7° (N) 03:43:02 436.795
RS-15 25 Feb 03:45:36 03:57:05 49° 248° (WSW) 04:08:10 29.354- 29.394
CUBESAT XI-V 25 Feb 03:52:40 03:57:11 52° 70° (ENE) 04:01:42 437.345
ITAMSAT 1 25 Feb 04:00:37 04:05:55 86° 107° (ESE) 04:11:09 435.822/435.867
STARS 25 Feb 04:03:03 04:07:17 51° 70° (ENE) 04:11:34 437.465
ITUPSAT 1 25 Feb 04:04:35 04:06:13 12° 274° (W) 04:07:52 437.325
Gurwin Techsat 1B 25 Feb 04:10:57 04:14:53 21° 302° (WNW) 04:18:49 435.225
AO-85 25 Feb 04:15:47 04:19:29 25° 117° (ESE) 04:22:59 145.980
MOZHAYETS 4 25 Feb 04:33:55 04:36:30 15° 272° (W) 04:39:05
M-CUBED/EXP-1 PRIME 25 Feb 04:37:35 04:40:50 73° 250° (WSW) 04:44:07 437.505
